map of IGR home
IGR - Airport
Location
City:  Puerto Iguaz˙, Misiones, Argentina
Near (Alt.):Puerto Iguašu
Name:Cataratas del Iguaz˙ International Airport
Old (Alt.):Mayor Carlos Eduardo Krause
ICAO:SARI
IATA:IGR

Details
Type:Airport (Aerodrome, Airfield)
Use:Public/Civil, International (customs port of entry)
Latitude:25░44'14"S (-25.737280)
Longitude:54░28'24"W (-54.473443)
Datum:WGS 1984
Elevation:916 ft (279 m)
Variation:16.28░W (WMM2015 magnetic declination)
-0.17░ annual change
Runways:1
Longest:10826 × 148 ft (3300 × 45 m), paved

Time
Time Zone:UTC-3
Local Time:

Weather
METAR:SARI 231300Z 09008KT CAVOK 24/17 Q1015
TAF:SARI 231100Z 2312/2412 02005KT CAVOK TX29/2318Z TN17/2409Z

Related Locations
Nearby:
Farthest:SHI: 12364 mi / 19898 km
Shimojishima (Shimojijima, Miyakojima) [Shimojishima Airport], Shimoji Island, 47, JP

Find:

   beyond  
but within

Other Information
Maps:
NOTAMs:
Links:
Sources:

  
flag of Argentina
flag of Misiones
  

Sectional Chart

Flight Planning
at skyvector.com

Satellite Image

Google Maps Satellite view

 

Copyright © 2004-2018 Karl L. Swartz. All rights reserved.
The Great Circle Mapper name and logo are trademarks of the Great Circle Mapper.
All other trademarks mentioned herein belong to their respective owners.
Please see credits for attibutions and further copyright information.

  Follow gcmap on Facebook Follow gcmap on Twitter Follow gcmap on Google+ GCmap on LinkedIn

hCard Microformat

Geo Microformat